FLTSATCOM F3

operational
NORAD ID: 11669 Int'l Des: 1980-004 Owner: USNESC/AFSD Country: US
HEOCIRCULAR

关于 FLTSATCOM F3

正在加载描述...

实时位置

正在加载3D地球...

即将过境

高度历史

Altitude vs Time

uPlot chart will show altitude changes over time

两行轨道根数

1 11669U 80004A 26061.14911172 -.00000309 00000-0 00000+0 0 9998
2 11669 6.3903 307.1043 0021106 246.4229 324.2144 1.00195361168789
Epoch: Mar 2, 2026 • Age: 27 hours

当前状态

高度 35745.9 km
速度 3.08 km/s
星下点 -2.19°S, 56.39°W
发射日期 Jan 18, 1980
运行时间 46.1 years
类型 other

技术详情

分类 Payload
质量 942.00 kg
干质量 822.00 kg
总质量 1876.00 kg
长度 1.30 m
直径 2.40 m
跨度 13.20 m
形状 Hex Cyl + Dish + 2 Pan
制造商 TRW
平台类型 FLTSATCOM
阶段状态 In Orbit
所有者/国家 USNESC/AFSD/US

大型星座

Loading constellations...